Location: Waldport
(44.4270°N, 124.0680°W)
Time: 12:43:48
(UTC-08:00)

Amateur Radio Satellites - All Passes

Search period start: 20 November 2014 12:13
Search period end: 21 November 2014 12:13
Location: Waldport, 44.4270°N, 124.0680°W

Satellite Date Start Highest point End Downlink Frequencies (MHz)
Time Altitude Azimuth
SWISSCUBE 20 Nov 12:21:40 12:22:33 10° 87° (E) 12:23:27 437.505
SPROUT 20 Nov 12:25:44 12:30:00 59° 101° (E) 12:34:12 437.525
ESTCUBE 1 20 Nov 12:26:36 12:30:41 34° 292° (WNW) 12:34:45 437.505/2401.250
TISAT 1 20 Nov 12:35:29 12:39:44 87° 104° (ESE) 12:43:56 437.305
50 SAT 20 Nov 12:37:29 12:38:52 12° 299° (WNW) 12:40:14 437.505
AO-7 20 Nov 12:51:23 12:54:40 13° 39° (NE) 12:57:57 29.400- 29.500
BEESAT 20 Nov 12:51:52 12:55:26 21° 93° (E) 12:59:00 436.000
Oscar 19 20 Nov 13:06:56 13:12:02 74° 257° (WSW) 13:17:10 437.125/150
YUBILEINY 20 Nov 13:09:12 13:16:49 32° 67° (ENE) 13:24:21 435.215
AUBIESAT-1 20 Nov 13:10:20 13:14:58 42° 103° (ESE) 13:19:36 437.475
M-CUBED/EXP-1 PRIME 20 Nov 13:11:04 13:15:48 46° 104° (ESE) 13:20:31 437.505
DANDE 20 Nov 13:16:55 13:19:00 17° 95° (E) 13:20:54 436.750
CUSAT 1 20 Nov 13:17:59 13:20:18 21° 96° (E) 13:22:24 437.405
HORYU 2 20 Nov 13:35:52 13:39:10 21° 64° (ENE) 13:42:28 437.375
Gurwin Techsat 1B 20 Nov 13:42:13 13:47:23 56° 71° (ENE) 13:52:35 435.225
ITUPSAT 1 20 Nov 13:42:49 13:47:37 62° 102° (ESE) 13:52:22 437.325
SO-50 20 Nov 13:46:01 13:50:53 71° 53° (NE) 13:55:46 436.795
ITAMSAT 1 20 Nov 13:46:02 13:51:16 80° 256° (WSW) 13:56:31 435.822/435.867
SWISSCUBE 20 Nov 13:56:15 14:01:06 89° 285° (WNW) 14:05:54 437.505
SPROUT 20 Nov 14:03:13 14:05:37 15° 298° (WNW) 14:08:01 437.525
TISAT 1 20 Nov 14:14:12 14:14:54 10° 301° (WNW) 14:15:35 437.305
BEESAT 20 Nov 14:28:55 14:33:32 47° 290° (WNW) 14:38:07 436.000
STARS 20 Nov 14:30:05 14:33:54 28° 96° (E) 14:37:42 437.465
AO-7 20 Nov 14:37:38 14:45:27 49° 61° (ENE) 14:53:19 29.400- 29.500
AUBIESAT-1 20 Nov 14:45:39 14:49:46 28° 299° (WNW) 14:53:54 437.475
M-CUBED/EXP-1 PRIME 20 Nov 14:46:35 14:50:34 26° 300° (WNW) 14:54:36 437.505
KKS-1 20 Nov 14:57:23 15:01:51 82° 103° (ESE) 15:06:17 437.445
DANDE 20 Nov 15:00:44 15:02:25 14° 287° (WNW) 15:04:00 436.750
CUSAT 1 20 Nov 15:02:56 15:03:26 10° 289° (WNW) 15:03:56 437.405
YUBILEINY 20 Nov 15:05:38 15:14:11 62° 268° (W) 15:22:39 435.215
HORYU 2 20 Nov 15:11:22 15:15:34 42° 261° (W) 15:19:48 437.375
ITUPSAT 1 20 Nov 15:21:54 15:25:02 18° 299° (WNW) 15:28:09 437.325
O/OREOS (USA 219) 20 Nov 15:23:07 15:25:08 13° 47° (NE) 15:27:10 437.305
Gurwin Techsat 1B 20 Nov 15:23:49 15:27:42 21° 268° (W) 15:31:37 435.225
SO-50 20 Nov 15:27:52 15:30:55 17° 250° (WSW) 15:33:57 436.795
SWISSCUBE 20 Nov 15:36:19 15:38:13 12° 303° (WNW) 15:40:07 437.505
JAS-2 20 Nov 15:37:08 15:43:51 37° 62° (ENE) 15:50:50 435.910
STARS 20 Nov 16:06:34 16:10:21 29° 293° (WNW) 16:14:08 437.465
CUTE-I 20 Nov 16:22:40 16:26:26 20° 60° (ENE) 16:30:13 437.470
VERMONT LUNAR 20 Nov 16:27:03 16:28:35 12° 150° (SSE) 16:30:07 437.305
AO-7 20 Nov 16:30:36 16:38:19 42° 261° (W) 16:46:08 29.400- 29.500
KKS-1 20 Nov 16:36:09 16:37:52 12° 301° (WNW) 16:39:34 437.445
MaSat-1 20 Nov 16:40:11 16:43:18 69° 116° (ESE) 16:46:08 437.345
RS-15 20 Nov 16:45:55 16:56:21 53° 113° (ESE) 17:06:46 29.354- 29.394
MOZHAYETS 4 20 Nov 16:55:15 16:59:41 42° 98° (E) 17:04:06
O/OREOS (USA 219) 20 Nov 17:00:44 17:05:14 89° 247° (WSW) 17:09:42 437.305
YUBILEINY 20 Nov 17:06:48 17:09:00 11° 290° (WNW) 17:11:12 435.215
Cubesat XI-IV 20 Nov 17:17:35 17:22:50 57° 71° (ENE) 17:28:06 437.490
JAS-2 20 Nov 17:21:15 17:28:30 55° 262° (W) 17:36:14 435.910
PHONESAT 2.4 20 Nov 17:28:32 17:31:23 21° 156° (SSE) 17:34:13 2401.200-2431.200
HO-68 20 Nov 17:48:09 17:49:02 10° 43° (NE) 17:49:54 435.675
CUTE-I 20 Nov 18:00:41 18:06:01 65° 258° (WSW) 18:11:22 437.470
VERMONT LUNAR 20 Nov 18:03:09 18:06:28 33° 166° (SSE) 18:09:46 437.305
STRAND 1 20 Nov 18:05:38 18:09:04 18° 91° (E) 18:12:28 437.568
CUBESAT XI-V 20 Nov 18:20:00 18:23:50 24° 93° (E) 18:27:38 437.345
MOZHAYETS 4 20 Nov 18:33:02 18:36:40 23° 295° (WNW) 18:40:18
PRISM 20 Nov 18:40:57 18:45:14 78° 285° (WNW) 18:49:27 437.425
RS-15 20 Nov 18:58:09 19:08:45 53° 317° (NW) 19:19:29 29.354- 29.394
GONETS M04 20 Nov 18:58:12 19:06:09 35° 68° (ENE) 19:14:00
Cubesat XI-IV 20 Nov 18:59:19 19:03:16 21° 268° (W) 19:07:15 437.490
PHONESAT 2.4 20 Nov 19:06:11 19:09:44 42° 173° (S) 19:13:16 2401.200-2431.200
SEEDS 20 Nov 19:09:49 19:11:40 13° 61° (ENE) 19:13:31 437.485
AIST 1 20 Nov 19:23:57 19:26:22 15° 84° (E) 19:28:49
CANX-2 20 Nov 19:27:43 19:31:04 24° 66° (ENE) 19:34:27 2200.000
HO-68 20 Nov 19:28:13 19:34:58 46° 64° (ENE) 19:41:45 435.675
SHINDAISAT 20 Nov 19:30:41 19:31:45 13° 46° (NE) 19:32:49 437.305
AAUSAT CUBESAT 2 20 Nov 19:37:29 19:40:21 18° 64° (ENE) 19:43:14 437.432
VERMONT LUNAR 20 Nov 19:41:10 19:44:39 45° 183° (S) 19:48:08 437.305
STRAND 1 20 Nov 19:43:37 19:48:40 60° 288° (WNW) 19:53:40 437.568
CINEMA 3 20 Nov 19:44:52 19:46:31 12° 61° (ENE) 19:48:09 145.822/145.860
COMPASS 1 20 Nov 19:47:55 19:51:23 26° 67° (ENE) 19:54:52 437.405
CUBESAT XI-V 20 Nov 19:57:03 20:01:23 38° 291° (WNW) 20:05:40 437.345
CUBEBUG 2 20 Nov 19:59:24 19:59:59 10° 60° (ENE) 20:00:33 437.445
DOVE 4 20 Nov 20:00:08 20:04:07 28° 68° (ENE) 20:07:55 437.250
CUTE 1.7 & AOD 2 20 Nov 20:02:20 20:06:24 49° 72° (ENE) 20:10:29 437.475
UKube-1 20 Nov 20:04:37 20:07:45 20° 63° (ENE) 20:10:53 .
UWE-3 20 Nov 20:10:54 20:12:30 12° 61° (ENE) 20:14:05 435.000/436.395/437.385
DELFI C3 20 Nov 20:12:15 20:15:07 19° 65° (ENE) 20:17:59 145.870
BRITE-PL 20 Nov 20:12:42 20:17:52 66° 74° (ENE) 20:22:39 437.365/2234.400
GOMX 1 20 Nov 20:14:18 20:19:04 50° 72° (ENE) 20:23:33 467.674
Oscar 11 20 Nov 20:19:50 20:23:29 27° 67° (ENE) 20:27:08 145.826/435.025
DX 1 20 Nov 20:33:10 20:37:12 37° 69° (ENE) 20:41:16 434.975-435.025
PCSat 20 Nov 20:35:23 20:40:21 39° 112° (ESE) 20:45:21 145.827
VELOX 1 20 Nov 20:38:50 20:41:25 15° 61° (ENE) 20:44:00 145.980
SEEDS 20 Nov 20:42:48 20:46:58 68° 259° (WSW) 20:51:10 437.485
PHONESAT 2.4 20 Nov 20:44:45 20:48:15 39° 190° (S) 20:51:44 2401.200-2431.200
GONETS M04 20 Nov 20:54:48 21:03:23 57° 270° (W) 21:11:53
ZACube-1 20 Nov 20:56:46 21:00:27 29° 69° (ENE) 21:04:05 437.345
AIST 1 20 Nov 20:59:16 21:03:33 53° 282° (WNW) 21:07:54
AISAT 20 Nov 21:00:09 21:03:46 24° 65° (ENE) 21:07:24 437.250
SHINDAISAT 20 Nov 21:01:46 21:02:53 14° 244° (WSW) 21:04:00 437.305
CANX-2 20 Nov 21:03:04 21:06:52 33° 264° (W) 21:10:43 2200.000
AAUSAT CUBESAT 2 20 Nov 21:11:47 21:15:44 43° 262° (W) 21:19:44 437.432
RS-15 20 Nov 21:15:30 21:24:22 27° 350° (N) 21:33:25 29.354- 29.394
HO-68 20 Nov 21:16:10 21:22:45 38° 263° (W) 21:29:24 435.675
BEESAT 3 20 Nov 21:18:07 21:21:46 31° 116° (ESE) 21:25:28 437.485
CINEMA 3 20 Nov 21:18:40 21:23:11 78° 257° (WSW) 21:27:32 145.822/145.860
VERMONT LUNAR 20 Nov 21:19:42 21:22:47 26° 199° (SSW) 21:25:51 437.305
COMPASS 1 20 Nov 21:23:25 21:27:03 29° 264° (W) 21:30:43 437.405
HUMSAT D 20 Nov 21:23:37 21:27:23 34° 70° (ENE) 21:31:08 437.325/437.525
BEESAT 2 20 Nov 21:28:34 21:32:21 36° 117° (ESE) 21:36:13 435.950
CUBEBUG 2 20 Nov 21:31:43 21:36:04 88° 256° (WSW) 21:40:19 437.445
FUNcube-1 20 Nov 21:32:49 21:37:04 71° 75° (ENE) 21:41:15 145.935
CUBEBUG 1 20 Nov 21:35:21 21:38:38 21° 64° (ENE) 21:41:55 437.445
DOVE 4 20 Nov 21:37:31 21:41:49 33° 263° (W) 21:45:54 437.250
AIST 2 20 Nov 21:37:47 21:41:11 24° 113° (ESE) 21:44:38 435.215
UKube-1 20 Nov 21:39:26 21:43:37 45° 261° (W) 21:47:49 .
CUTE 1.7 & AOD 2 20 Nov 21:40:06 21:42:38 16° 269° (W) 21:45:11 437.475
UWE-3 20 Nov 21:44:13 21:48:31 74° 258° (WSW) 21:52:44 435.000/436.395/437.385
ANTELSAT 20 Nov 21:44:49 21:46:23 12° 89° (E) 21:47:57 437.575/2403.000
DELFI C3 20 Nov 21:46:20 21:50:09 40° 262° (W) 21:54:01 145.870
50 SAT 20 Nov 21:50:42 21:54:41 57° 73° (ENE) 21:58:39 437.505
ESTCUBE 1 20 Nov 21:51:28 21:55:26 31° 67° (ENE) 21:59:25 437.505/2401.250
BRITE-PL 20 Nov 21:53:35 21:56:42 16° 269° (W) 21:59:42 437.365/2234.400
GOMX 1 20 Nov 21:53:53 21:57:24 19° 267° (W) 22:00:47 467.674
Oscar 11 20 Nov 21:55:50 21:59:35 29° 264° (W) 22:03:22 145.826/435.025
NANOSAT C BR1 20 Nov 22:04:40 22:06:29 13° 90° (E) 22:08:18 145.865
DX 1 20 Nov 22:10:09 22:13:34 22° 266° (W) 22:17:00 434.975-435.025
VELOX 1 20 Nov 22:13:04 22:17:31 64° 258° (WSW) 22:21:59 145.980
QB50P1 20 Nov 22:13:06 22:15:41 16° 91° (E) 22:18:15 145.935-145.965
PCSat 20 Nov 22:18:49 22:23:47 36° 311° (NW) 22:28:48 145.827
PHONESAT 2.4 20 Nov 22:24:02 22:26:32 17° 206° (SSW) 22:29:02 2401.200-2431.200
ZACube-1 20 Nov 22:33:15 22:36:49 26° 265° (W) 22:40:23 437.345
AISAT 20 Nov 22:36:05 22:40:14 36° 262° (W) 22:44:24 437.250
POPSAT HIP 1 20 Nov 22:36:17 22:39:55 27° 95° (E) 22:43:31 437.405
TIGRISAT 20 Nov 22:40:58 22:45:08 44° 99° (E) 22:49:23 435.000
UNISAT 6 20 Nov 22:51:14 22:55:34 58° 101° (E) 22:59:58 437.425
BUGSAT 1 20 Nov 22:53:17 22:57:03 34° 97° (E) 23:00:46 437.445
BEESAT 3 20 Nov 22:56:18 22:59:59 31° 314° (NW) 23:03:44 437.485
HUMSAT D 20 Nov 23:00:06 23:03:18 21° 266° (W) 23:06:29 437.325/437.525
POLYITAN 1 20 Nov 23:05:51 23:10:02 58° 101° (E) 23:14:12 437.675
BEESAT 2 20 Nov 23:07:09 23:10:44 28° 316° (NW) 23:14:23 435.950
QB50P2 20 Nov 23:10:15 23:14:29 66° 102° (ESE) 23:18:40 145.880/145.840
CUBEBUG 1 20 Nov 23:10:28 23:14:43 44° 261° (W) 23:19:00 437.445
FUNcube-1 20 Nov 23:12:50 23:13:53 11° 271° (W) 23:14:57 145.935
AIST 2 20 Nov 23:15:36 23:19:37 40° 312° (NW) 23:23:42 435.215
ITUPSAT 1 20 Nov 23:17:15 23:19:00 12° 57° (ENE) 23:20:46 437.325
ANTELSAT 20 Nov 23:19:17 23:23:39 72° 285° (WNW) 23:28:06 437.575/2403.000
DUCHIFAT 1 20 Nov 23:20:07 23:24:21 83° 103° (ESE) 23:28:34 145.980
SPROUT 20 Nov 23:21:34 23:25:49 57° 73° (ENE) 23:30:04 437.525
ESTCUBE 1 20 Nov 23:28:19 23:32:17 29° 265° (W) 23:36:16 437.505/2401.250
50 SAT 20 Nov 23:28:38 23:30:23 12° 270° (W) 23:32:08 437.505
SWISSCUBE 20 Nov 23:29:02 23:32:03 17° 60° (ENE) 23:35:04 437.505
TISAT 1 20 Nov 23:29:37 23:33:54 82° 75° (ENE) 23:38:12 437.305
RS-15 20 Nov 23:31:34 23:41:15 33° 25° (NNE) 23:51:12 29.354- 29.394
NANOSAT C BR1 20 Nov 23:38:37 23:42:48 62° 287° (WNW) 23:46:57 145.865
QB50P1 20 Nov 23:47:48 23:51:53 49° 288° (WNW) 23:55:56 145.935-145.965
CUSAT 1 20 Nov 23:52:34 23:56:03 29° 76° (ENE) 00:00:28 437.405
DANDE 20 Nov 23:53:37 23:56:45 24° 76° (ENE) 00:00:39 436.750
BEESAT 21 Nov 00:00:04 00:04:10 29° 66° (ENE) 00:08:17 436.000
AUBIESAT-1 21 Nov 00:01:46 00:05:38 65° 68° (ENE) 00:09:54 437.475
M-CUBED/EXP-1 PRIME 21 Nov 00:02:56 00:06:48 73° 69° (ENE) 00:11:06 437.505
POPSAT HIP 1 21 Nov 00:12:10 00:15:47 28° 292° (WNW) 00:19:23 437.405
TIGRISAT 21 Nov 00:18:30 00:21:37 20° 295° (WNW) 00:24:47 435.000
KKS-1 21 Nov 00:24:31 00:25:45 11° 58° (ENE) 00:26:59 437.445
BUGSAT 1 21 Nov 00:29:12 00:32:23 22° 295° (WNW) 00:35:32 437.445
UNISAT 6 21 Nov 00:29:20 00:31:57 16° 298° (WNW) 00:34:36 437.425
ISS 21 Nov 00:35:52 00:37:12 12° 131° (SE) 00:38:33 145.825
POLYITAN 1 21 Nov 00:43:11 00:45:32 15° 298° (WNW) 00:47:53 437.675
QB50P2 21 Nov 00:47:51 00:49:53 13° 299° (WNW) 00:51:56 145.880/145.840
ITUPSAT 1 21 Nov 00:51:19 00:56:08 86° 75° (ENE) 01:00:59 437.325
DUCHIFAT 1 21 Nov 00:58:32 00:59:35 11° 301° (WNW) 01:00:38 145.980
SPROUT 21 Nov 00:59:55 01:02:16 14° 270° (W) 01:04:38 437.525
SWISSCUBE 21 Nov 01:04:38 01:09:24 65° 258° (WSW) 01:14:12 437.505
Oscar 19 21 Nov 01:17:01 01:21:43 35° 97° (E) 01:26:24 437.125/150
STARS 21 Nov 01:29:03 01:32:58 32° 68° (ENE) 01:36:54 437.465
CUSAT 1 21 Nov 01:35:42 01:39:08 26° 264° (W) 01:43:27 437.405
DANDE 21 Nov 01:36:47 01:40:11 29° 263° (W) 01:44:32 436.750
BEESAT 21 Nov 01:37:34 01:41:55 34° 263° (W) 01:46:17 436.000
AUBIESAT-1 21 Nov 01:39:48 01:41:14 12° 268° (W) 01:42:43 437.475
M-CUBED/EXP-1 PRIME 21 Nov 01:42:09 01:42:33 10° 269° (W) 01:42:57 437.505
RS-15 21 Nov 01:44:26 01:55:40 78° 53° (NE) 02:07:23 29.354- 29.394
KKS-1 21 Nov 01:57:13 02:01:42 90° 83° (E) 02:06:11 437.445
ITAMSAT 1 21 Nov 01:57:37 02:02:15 32° 96° (E) 02:06:51 435.822/435.867
Gurwin Techsat 1B 21 Nov 01:57:37 02:01:25 20° 91° (E) 02:05:10 435.225
ISS 21 Nov 02:10:06 02:13:23 85° 148° (SSE) 02:16:42 145.825
YUBILEINY 21 Nov 02:12:45 02:20:20 34° 84° (E) 02:27:54 435.215
MaSat-1 21 Nov 02:18:43 02:20:45 27° 247° (WSW) 02:22:49 437.345
ITUPSAT 1 21 Nov 02:33:20 02:34:40 11° 272° (W) 02:36:00 437.325
AO-7 21 Nov 02:40:58 02:43:09 11° 84° (E) 02:45:20 29.400- 29.500
Oscar 19 21 Nov 02:56:28 03:01:00 32° 294° (WNW) 03:05:32 437.125/150
HORYU 2 21 Nov 03:01:20 03:05:21 32° 97° (E) 03:09:22 437.375
STARS 21 Nov 03:05:46 03:09:29 26° 265° (W) 03:13:12 437.465
Gurwin Techsat 1B 21 Nov 03:36:32 03:41:46 59° 289° (WNW) 03:46:57 435.225
ITAMSAT 1 21 Nov 03:37:04 03:41:44 35° 294° (WNW) 03:46:22 435.822/435.867
PCSat 21 Nov 03:39:38 03:41:40 12° 29° (NNE) 03:43:42 145.827
ISS 21 Nov 03:47:27 03:50:20 27° 347° (NNW) 03:53:14 145.825
RS-15 21 Nov 03:57:41 04:07:03 32° 255° (WSW) 04:16:46 29.354- 29.394
MOZHAYETS 4 21 Nov 03:58:56 04:03:19 47° 71° (ENE) 04:07:45
PRISM 21 Nov 04:01:30 04:02:37 11° 59° (ENE) 04:03:45 437.425
SO-50 21 Nov 04:04:39 04:07:07 15° 109° (ESE) 04:09:37 436.795
YUBILEINY 21 Nov 04:08:03 04:16:41 57° 284° (WNW) 04:25:21 435.215
AO-7 21 Nov 04:29:19 04:37:37 62° 104° (ESE) 04:45:52 29.400- 29.500
JAS-2 21 Nov 04:30:36 04:36:30 26° 88° (E) 04:41:53 435.910
HORYU 2 21 Nov 04:38:09 04:41:57 28° 294° (WNW) 04:45:44 437.375
PCSat 21 Nov 05:21:16 05:26:31 46° 52° (NE) 05:31:43 145.827
STRAND 1 21 Nov 05:22:48 05:27:18 32° 66° (ENE) 05:31:49 437.568
ISS 21 Nov 05:24:56 05:27:42 24° 7° (N) 05:30:28 145.825
CUBESAT XI-V 21 Nov 05:25:08 05:29:13 30° 67° (ENE) 05:33:19 437.345
PRISM 21 Nov 05:33:20 05:37:31 83° 257° (WSW) 05:41:47 437.425
Cubesat XI-IV 21 Nov 05:34:12 05:37:59 19° 91° (E) 05:41:44 437.490
BEESAT 3 21 Nov 05:36:17 05:40:13 36° 48° (NE) 05:44:05 437.485
MOZHAYETS 4 21 Nov 05:37:33 05:40:48 19° 269° (W) 05:44:05
SO-50 21 Nov 05:42:31 05:47:02 72° 307° (NW) 05:51:44 436.795
BEESAT 2 21 Nov 05:47:10 05:51:12 41° 49° (NE) 05:55:11 435.950
AIST 2 21 Nov 05:57:39 06:01:30 30° 45° (NE) 06:05:18 435.215
YUBILEINY 21 Nov 06:12:25 06:15:49 13° 309° (NW) 06:19:14 435.215
JAS-2 21 Nov 06:14:47 06:22:10 65° 290° (WNW) 06:28:43 435.910
CUTE-I 21 Nov 06:16:16 06:21:23 45° 99° (E) 06:26:26 437.470
AO-7 21 Nov 06:22:41 06:29:57 35° 304° (NW) 06:37:14 29.400- 29.500
ISS 21 Nov 07:01:32 07:04:49 60° 27° (NNE) 07:08:06 145.825
STRAND 1 21 Nov 07:01:43 07:06:24 35° 263° (W) 07:11:08 437.568
CUBESAT XI-V 21 Nov 07:02:22 07:06:35 32° 264° (W) 07:10:50 437.345
AIST 1 21 Nov 07:04:57 07:09:11 43° 77° (ENE) 07:13:21
PCSat 21 Nov 07:05:06 07:09:42 29° 251° (WSW) 07:14:17 145.827
Cubesat XI-IV 21 Nov 07:13:13 07:18:28 59° 289° (WNW) 07:23:40 437.490
O/OREOS (USA 219) 21 Nov 07:14:23 07:18:53 79° 112° (ESE) 07:23:23 437.305
BEESAT 3 21 Nov 07:14:48 07:18:19 26° 246° (WSW) 07:21:47 437.485
SO-50 21 Nov 07:25:44 07:28:28 15° 328° (NNW) 07:31:14 436.795
BEESAT 2 21 Nov 07:25:58 07:29:17 23° 247° (WSW) 07:32:33 435.950
AIST 2 21 Nov 07:36:15 07:40:10 34° 244° (WSW) 07:44:02 435.215
CUTE-I 21 Nov 07:56:49 08:01:13 27° 297° (WNW) 08:05:35 437.470
GONETS M04 21 Nov 08:01:42 08:09:28 37° 85° (E) 08:17:18
JAS-2 21 Nov 08:01:50 08:05:39 15° 311° (NW) 08:09:19 435.910
BRITE-PL 21 Nov 08:17:35 08:19:55 15° 90° (E) 08:22:13 437.365/2234.400
SEEDS 21 Nov 08:26:56 08:29:53 18° 92° (E) 08:32:49 437.485
ISS 21 Nov 08:38:40 08:41:14 21° 224° (SW) 08:43:46 145.825
HO-68 21 Nov 08:41:22 08:48:02 40° 98° (E) 08:54:39 435.675
AIST 1 21 Nov 08:43:34 08:46:29 18° 274° (W) 08:49:23
ANTELSAT 21 Nov 08:46:12 08:48:20 14° 61° (ENE) 08:50:29 437.575/2403.000
CANX-2 21 Nov 08:46:42 08:50:41 36° 97° (E) 08:54:38 2200.000
AAUSAT CUBESAT 2 21 Nov 08:54:04 08:57:38 26° 95° (E) 09:01:12 437.432
O/OREOS (USA 219) 21 Nov 08:56:29 08:58:53 14° 311° (NW) 09:01:17 437.305
NANOSAT C BR1 21 Nov 08:59:50 09:01:56 14° 61° (ENE) 09:04:01 145.865
COMPASS 1 21 Nov 09:05:21 09:09:21 39° 98° (E) 09:13:19 437.405
QB50P1 21 Nov 09:08:19 09:10:59 17° 63° (ENE) 09:13:40 145.935-145.965
CINEMA 3 21 Nov 09:12:50 09:15:54 20° 93° (E) 09:19:00 145.822/145.860
CUTE 1.7 & AOD 2 21 Nov 09:21:53 09:26:11 81° 103° (ESE) 09:30:29 437.475
FUNcube-1 21 Nov 09:22:05 09:23:30 11° 89° (E) 09:24:54 145.935
CUBEBUG 2 21 Nov 09:22:30 09:25:08 16° 92° (E) 09:27:47 437.445
DELFI C3 21 Nov 09:25:53 09:29:19 25° 95° (E) 09:32:45 145.870
UKube-1 21 Nov 09:26:03 09:29:43 26° 95° (E) 09:33:21 .
POPSAT HIP 1 21 Nov 09:31:16 09:34:52 27° 67° (ENE) 09:38:29 437.405
UWE-3 21 Nov 09:33:33 09:36:30 18° 93° (E) 09:39:29 435.000/436.395/437.385
DOVE 4 21 Nov 09:34:38 09:38:43 54° 100° (E) 09:42:49 437.250
Oscar 11 21 Nov 09:41:03 09:45:12 43° 98° (E) 09:49:21 145.826/435.025
TIGRISAT 21 Nov 09:41:45 09:45:52 47° 72° (ENE) 09:49:58 435.000
BUGSAT 1 21 Nov 09:45:17 09:49:05 32° 69° (ENE) 09:52:52 437.445
UNISAT 6 21 Nov 09:52:16 09:56:31 63° 74° (ENE) 10:00:45 437.425
GOMX 1 21 Nov 09:52:35 09:56:44 71° 285° (WNW) 10:00:53 467.674
BRITE-PL 21 Nov 09:54:46 09:58:48 48° 288° (WNW) 10:02:47 437.365/2234.400
DX 1 21 Nov 09:55:54 10:00:12 55° 101° (E) 10:04:27 434.975-435.025
GONETS M04 21 Nov 09:57:27 10:05:58 53° 286° (WNW) 10:14:37
POLYITAN 1 21 Nov 10:00:52 10:05:03 56° 73° (ENE) 10:09:14 437.675
SEEDS 21 Nov 10:01:53 10:05:56 43° 289° (WNW) 10:09:58 437.485
VELOX 1 21 Nov 10:03:10 10:06:35 21° 94° (E) 10:09:58 145.980
QB50P2 21 Nov 10:05:01 10:09:14 62° 73° (ENE) 10:13:28 145.880/145.840
DUCHIFAT 1 21 Nov 10:14:29 10:18:45 77° 75° (ENE) 10:23:01 145.980
ZACube-1 21 Nov 10:19:37 10:23:42 49° 100° (E) 10:27:49 437.345
ANTELSAT 21 Nov 10:20:24 10:24:39 64° 259° (WSW) 10:28:55 437.575/2403.000
CANX-2 21 Nov 10:23:06 10:26:26 22° 294° (WNW) 10:29:46 2200.000
AISAT 21 Nov 10:25:36 10:29:44 37° 98° (E) 10:33:49 437.250
HO-68 21 Nov 10:29:04 10:35:47 45° 296° (WNW) 10:42:28 435.675
AAUSAT CUBESAT 2 21 Nov 10:29:39 10:33:19 29° 292° (WNW) 10:36:58 437.432
NANOSAT C BR1 21 Nov 10:33:03 10:37:18 66° 258° (WSW) 10:41:34 145.865
COMPASS 1 21 Nov 10:41:41 10:44:51 21° 295° (WNW) 10:48:00 437.405
HUMSAT D 21 Nov 10:42:02 10:46:06 53° 100° (E) 10:50:10 437.325/437.525
QB50P1 21 Nov 10:42:19 10:46:30 52° 260° (W) 10:50:41 145.935-145.965
CINEMA 3 21 Nov 10:49:26 10:53:17 37° 290° (WNW) 10:57:11 145.822/145.860
FUNcube-1 21 Nov 10:56:08 11:00:18 66° 286° (WNW) 11:04:30 145.935
CUBEBUG 2 21 Nov 10:58:05 11:02:06 46° 288° (WNW) 11:06:11 437.445
CUBEBUG 1 21 Nov 10:58:15 11:02:07 30° 96° (E) 11:05:56 437.445
CUTE 1.7 & AOD 2 21 Nov 11:00:09 11:01:30 11° 300° (WNW) 11:02:51 437.475
DELFI C3 21 Nov 11:01:02 11:04:38 29° 291° (WNW) 11:08:13 145.870
UKube-1 21 Nov 11:02:03 11:05:54 31° 292° (WNW) 11:09:43 .
50 SAT 21 Nov 11:05:24 11:09:28 82° 103° (ESE) 11:13:32 437.505
POPSAT HIP 1 21 Nov 11:06:59 11:10:43 29° 264° (W) 11:14:28 437.405
UWE-3 21 Nov 11:09:18 11:13:15 41° 289° (WNW) 11:17:14 435.000/436.395/437.385
DOVE 4 21 Nov 11:13:49 11:16:06 15° 297° (WNW) 11:18:23 437.250
TISAT 1 21 Nov 11:15:34 11:17:00 12° 89° (E) 11:18:25 437.305
Oscar 11 21 Nov 11:17:57 11:21:05 20° 296° (WNW) 11:24:14 145.826/435.025
ESTCUBE 1 21 Nov 11:18:58 11:23:26 52° 100° (E) 11:27:50 437.505/2401.250
TIGRISAT 21 Nov 11:20:12 11:22:54 16° 268° (W) 11:25:36 435.000
BUGSAT 1 21 Nov 11:21:05 11:24:36 25° 265° (W) 11:28:08 437.445
SHINDAISAT 21 Nov 11:27:54 11:29:44 39° 121° (ESE) 11:31:36 437.305
UNISAT 6 21 Nov 11:31:57 11:33:45 12° 270° (W) 11:35:34 437.425
DX 1 21 Nov 11:33:18 11:36:01 16° 298° (WNW) 11:38:43 434.975-435.025
POLYITAN 1 21 Nov 11:39:03 11:41:21 14° 269° (W) 11:43:39 437.675
VELOX 1 21 Nov 11:39:11 11:43:19 39° 291° (WNW) 11:47:25 145.980
QB50P2 21 Nov 11:43:39 11:45:34 13° 270° (W) 11:47:31 145.880/145.840
DUCHIFAT 1 21 Nov 11:54:50 11:55:09 10° 272° (W) 11:55:29 145.980
ZACube-1 21 Nov 11:57:04 11:59:44 17° 296° (WNW) 12:02:25 437.345
AISAT 21 Nov 12:02:40 12:06:11 24° 295° (WNW) 12:09:41 437.250
GONETS M04 21 Nov 12:02:46 12:05:21 11° 311° (NW) 12:07:56
